Find Starlink 33645

NORAD ID: 63412 Int'l Des: 2025-065 Owner: SPXS Country: US Constellation: starlink operational
LEOCIRCULAR

Current View

Loading 3D Globe...

About Starlink 33645

Starlink 33645 (NORAD 63412) is a starlink constellation satellite (v2 mini) launched Mar 31, 2025 by SPXS of US. It operates in LEO, CIRCULAR orbit with a mass of 575.00 kg.

About Starlink 33645

Description loading...

Upcoming Passes

Passes for default location (London). Set your location on the main map for personalized predictions.

Altitude History

Loading altitude history...

Two-Line Element Set

1 63412U 25065P 26169.52674242 .00014595 00000-0 53845-3 0 9992
2 63412 42.9934 260.8190 0002392 124.9445 235.1631 15.27602273 68224
Epoch: Jun 18, 2026 • Age: 7 hours

Current Status

Altitude 484.1 km
Velocity 7.63 km/s
Sub-Earth Point 36.76°N, 117.3°E
Launch Date Mar 31, 2025
Age 1.2 years
Type internet

Technical Details

Classification Payload
Mass 575.00 kg
Dry Mass 530.00 kg
Total Mass 575.00 kg
Length 0.30 m
Diameter 4.10 m
Span 29.00 m
Shape Box + pan
Manufacturer SPXS
Bus Type Starlink V2MO
Phase Status In Orbit
Owner/State SPXS/US

Most Searched